Flag for U.S.A. Weather past 2 weeks in Helena, Montana, U.S.A.

Now
77 °F

Sunny.


Feels Like: 78 °F
Forecast: 50 / 83 °F
Wind: 7 mph from Northeast

Location: Helena Regional Airport

Current Time: Jul 6, 2015 at 5:06:10 PM

Latest Report: Jul 6, 2015 at 3:53 PM


Visibility: 10 mi

Pressure: 30.07 "Hg (26.09 "Hg at 1239m altitude)

Humidity: 40%

Dew point: 51 °F

Location of HelenaLocation

Historic Weather in Helena — Graph

°F

Helena temperature yesterday

Maximum temperature yesterday: 65 °F (at 12:53 AM)
Minimum temperature yesterday: 53 °F (at 6:53 PM)
Average temperature yesterday: 58 °F

Past Weeks' High & Low Weather Summary

 TemperatureHumidityPressure
High101 °F (Jun 27, 3:53 PM)90% (Jun 30, 5:53 AM)30.30 "Hg (Jun 30, 5:53 AM)
Low52 °F (Jul 6, 4:53 AM)11% (Jun 26, 5:53 PM)29.64 "Hg (Jul 4, 6:53 PM)
Average75 °F38%30.00 "Hg
* Reported Jun 21 2:53 PM — Jul 6 2:53 PM, Helena, Weather by CustomWeather, © 2015

Note: Actual official high and low records may vary slightly from our data, if they occured in-between our weather recording intervals... More about our weather records

Advertising

Helena weather history for previous 24 hours

 ConditionsComfort  
Time TempWeatherWind HumidityBarometerVisibility
2:53 PM
Mon, Jul 6
74 °FSunny.6 mph46%30.11 "Hg10 mi
1:53 PM69 °FSunny.6 mph51%30.16 "Hg10 mi
12:53 PM64 °FOvercast.No wind56%30.19 "Hg10 mi
11:53 AM61 °FOvercast.5 mph62%30.23 "Hg10 mi
10:53 AM59 °FOvercast.5 mph67%30.24 "Hg10 mi
9:53 AM57 °FOvercast.No wind67%30.26 "Hg10 mi
8:53 AM55 °FOvercast.No wind72%30.27 "Hg10 mi
7:53 AM53 °FOvercast.5 mph77%30.29 "Hg10 mi
6:53 AM53 °FOvercast.5 mph77%30.30 "Hg10 mi
5:53 AM52 °FOvercast.5 mph83%30.28 "Hg10 mi
4:53 AM52 °FOvercast.6 mph80%30.27 "Hg10 mi
3:53 AM53 °FPassing clouds.5 mph80%30.27 "Hg10 mi
2:53 AM53 °FOvercast.5 mph80%30.27 "Hg10 mi
1:53 AM53 °FMostly cloudy.8 mph80%30.28 "Hg10 mi
12:53 AM53 °FMostly cloudy.7 mph80%30.28 "Hg10 mi
11:53 PM
Sun, Jul 5
53 °FOvercast.8 mph80%30.27 "Hg10 mi
10:53 PM53 °FMostly cloudy.8 mph83%30.27 "Hg10 mi
9:53 PM54 °FMostly cloudy.8 mph80%30.26 "Hg10 mi
9:00 PM54 °FMostly cloudy.8 mph83%30.23 "Hg10 mi
7:53 PM54 °FMostly cloudy.6 mph83%30.22 "Hg10 mi
6:53 PM53 °FRain. Fog.8 mph89%30.22 "Hg2 mi
5:53 PM54 °FLight rain. Fog.12 mph86%30.17 "Hg5 mi
Weather by CustomWeather, © 2015

See weather overviewHow to use our weather pages